Location: Baumgartsau
(48.4586°N, 14.0864°E)
Time: 06:02:48
(UTC+00:00)

Cosmos 1461 - Pass Details

Date: 09 April 2020
Orbit: 507 x 660 km, 65.0° (Epoch: 02 June)

Event Time Altitude Azimuth Distance (km) Brightness Sun altitude
Rises 18:56:40 0° 318° (NW) 2,889 7.9 -11.7°
Reaches altitude 10° 18:58:56 10° 314° (NW) 2,003 7.0 -12.1°
Maximum altitude 19:03:21 52° 238° (WSW) 799 3.8 -12.7°
Enters shadow 19:07:46 11° 163° (SSE) 2,010 5.3 -13.4°
